Location: Unspecified
(52.1971°N, 0.0000°E)
Time: 04:03:20
(UTC+00:00)

YUBILEINY - Pass Details

Date: 16 December 2019
Orbit: 1478 x 1509 km, 82.5° (Epoch: 20 January)

Event Time Altitude Azimuth Distance (km) Brightness Sun altitude
Exits shadow 23:49:03 12° 352° (N) 3,476 ? -61.1°
Drops below altitude 10° 23:49:51 10° 357° (N) 3,631 ? -61.1°
Sets 23:54:01 0° 15° (NNE) 4,612 ? -61.1°
